Location: LDNL
(36.4545°S, 141.6685°E)
Time: 13:35:21
(UTC+11:00)

Explorer 11/Cluster Stage 4 - All Passes

Search period start: 23 January 2022 00:00
Search period end: 02 February 2022 00:00
Orbit: 467 x 1255 km, 28.8° (Epoch: 22 January)

Date Brightness Start Highest point End Pass type
(mag) Time Alt. Az. Time Alt. Az. Time Alt. Az.
23 Jan - 14:59:41 10° N 15:04:28 17° NNE 15:09:19 10° ENE daylight
23 Jan - 16:45:37 10° NW 16:52:54 35° NNE 16:59:57 10° E daylight
23 Jan - 18:33:56 10° WNW 18:41:45 48° N 18:48:44 10° ENE daylight
23 Jan - 20:23:16 10° W 20:30:28 41° NNW 20:36:34 10° NE daylight
23 Jan - 22:13:39 10° WNW 22:18:32 20° NNW 22:22:48 10° NNE visible
24 Jan - 14:47:33 10° NNW 14:52:46 19° NNE 14:58:09 10° ENE daylight
24 Jan - 16:33:50 10° NW 16:41:14 38° NNE 16:48:31 10° E daylight
24 Jan - 18:22:15 10° WNW 18:30:07 49° N 18:37:18 10° ENE daylight
24 Jan - 20:11:36 10° W 20:18:52 39° NNW 20:25:09 10° NE daylight
24 Jan - 22:02:11 10° WNW 22:06:56 19° NNW 22:11:09 10° NNE visible
25 Jan - 14:35:33 10° NNW 14:41:04 21° NNE 14:46:52 10° ENE daylight
25 Jan - 16:22:07 10° NW 16:29:34 40° NNE 16:37:02 10° E daylight
25 Jan - 18:10:35 10° WNW 18:18:29 49° N 18:25:51 10° ENE daylight
25 Jan - 19:59:57 10° W 20:07:15 38° NNW 20:13:40 10° NE daylight
25 Jan - 21:50:46 10° WNW 21:55:20 17° NNW 21:59:26 10° N visible
26 Jan - 14:23:40 10° NNW 14:29:23 23° NNE 14:35:29 10° ENE daylight
26 Jan - 16:10:27 10° NW 16:17:54 42° NNE 16:25:31 10° E daylight
26 Jan - 17:58:56 10° WNW 18:06:51 50° N 18:14:21 10° ENE daylight
26 Jan - 19:48:20 10° W 19:55:37 36° NNW 20:02:08 10° NE daylight
26 Jan - 21:39:26 10° WNW 21:43:41 16° NNW 21:47:36 10° N visible
27 Jan - 14:11:52 10° NNW 14:17:42 25° NNE 14:24:02 10° ENE daylight
27 Jan - 15:58:50 10° WNW 16:06:14 44° N 16:13:58 10° E daylight
27 Jan - 17:47:20 10° WNW 17:55:11 49° N 18:02:48 10° ENE daylight
27 Jan - 19:36:44 10° W 19:43:58 34° NNW 19:50:33 10° NE daylight
27 Jan - 21:28:12 10° WNW 21:32:02 14° NNW 21:35:37 10° N visible
28 Jan - 14:00:10 10° NNW 14:06:02 27° NNE 14:12:31 10° ENE daylight
28 Jan - 15:47:16 10° WNW 15:54:34 46° N 16:02:22 10° ENE daylight
28 Jan - 17:35:45 10° WNW 17:43:32 48° N 17:51:14 10° ENE daylight
28 Jan - 19:25:11 10° W 19:32:17 32° NNW 19:38:54 10° NE daylight
28 Jan - 21:17:08 10° WNW 21:20:21 13° NW 21:23:25 10° N visible
29 Jan - 13:48:32 10° NW 13:54:22 29° NNE 14:00:57 10° ENE daylight
29 Jan - 15:35:44 10° WNW 15:42:55 47° N 15:50:45 10° ENE daylight
29 Jan - 17:24:12 10° WNW 17:31:52 47° N 17:39:36 10° ENE daylight
29 Jan - 19:13:39 10° W 19:20:36 30° NNW 19:27:11 10° NE daylight
29 Jan - 21:06:26 10° NW 21:08:41 11° NW 21:10:52 10° NNW visible
30 Jan - 11:53:30 10° NNE 11:54:59 11° NE 11:56:31 10° NE daylight
30 Jan - 13:36:58 10° NW 13:42:44 31° NNE 13:49:22 10° E daylight
30 Jan - 15:24:14 10° WNW 15:31:16 48° N 15:39:06 10° ENE daylight
30 Jan - 17:12:42 10° WNW 17:20:12 45° N 17:27:57 10° ENE daylight
30 Jan - 19:02:12 10° WNW 19:08:54 28° NNW 19:15:24 10° NNE daylight
31 Jan - 11:41:09 10° NNE 11:43:22 12° NE 11:45:44 10° NE daylight
31 Jan - 13:25:26 10° NW 13:31:07 32° NNE 13:37:44 10° E daylight
31 Jan - 15:12:48 10° WNW 15:19:39 48° N 15:27:24 10° ENE daylight
31 Jan - 17:01:14 10° WNW 17:08:32 43° N 17:16:14 10° ENE daylight
31 Jan - 18:50:47 10° WNW 18:57:12 26° NNW 19:03:32 10° NNE daylight
01 Feb - 11:29:09 10° N 11:31:46 13° NNE 11:34:37 10° ENE daylight
01 Feb - 13:13:58 10° NW 13:19:32 34° NNE 13:26:06 10° E daylight
01 Feb - 15:01:23 10° WNW 15:08:03 48° N 15:15:43 10° ENE daylight
01 Feb - 16:49:48 10° WNW 16:56:53 41° NNW 17:04:29 10° NE daylight
01 Feb - 18:39:27 10° WNW 18:45:31 23° NNW 18:51:35 10° NNE daylight
